N6OIL Weather Reports


Display with metric or nautical units.
time (UTC)temp
F
wind
direction
speed
MPH
gust
MPH
rain 1hr
in
rain 24hr
in
rain mn
in
humidity
%
barometer
mb
20260904200704 81 293 8.0 14.0 0.00 0.00 0.00 23 1014.1
20260904200205 81 344 9.0 15.0 0.00 0.00 0.00 23 1014.2
20260904195704 80 254 10.0 15.0 0.00 0.00 0.00 23 1014.2
20260904194704 81 286 10.0 15.0 0.00 0.00 0.00 23 1014.3
20260904194206 81 277 9.0 15.0 0.00 0.00 0.00 23 1014.3
20260904192704 80 291 6.0 10.0 0.00 0.00 0.00 24 1014.4
20260904192206 80 301 4.0 10.0 0.00 0.00 0.00 21 1014.5
20260904191704 81 268 4.0 10.0 0.00 0.00 0.00 21 1014.5
20260904191205 81 306 3.0 10.0 0.00 0.00 0.00 21 1014.6
20260904190704 80 240 3.0 10.0 0.00 0.00 0.00 23 1014.6
20260904190206 79 240 4.0 10.0 0.00 0.00 0.00 23 1014.6
20260904184704 79 223 5.0 11.0 0.00 0.00 0.00 23 1014.7
20260904183704 78 267 4.0 11.0 0.00 0.00 0.00 24 1014.6
20260904183204 78 275 5.0 12.0 0.00 0.00 0.00 23 1014.6
20260904182705 78 301 6.0 12.0 0.00 0.00 0.00 24 1014.7
20260904181704 77 248 7.0 11.0 0.00 0.00 0.00 24 1014.9
20260904181204 78 250 6.0 10.0 0.00 0.00 0.00 24 1014.9
20260904180704 77 275 6.0 10.0 0.00 0.00 0.00 25 1014.9
20260904180206 78 358 5.0 9.0 0.00 0.00 0.00 24 1014.9
20260904175704 78 266 3.0 9.0 0.00 0.00 0.00 23 1015.0
20260904174705 77 303 4.0 9.0 0.00 0.00 0.00 24 1015.0
20260904174204 77 302 5.0 9.0 0.00 0.00 0.00 25 1015.0
20260904173704 77 275 5.0 9.0 0.00 0.00 0.00 25 1015.0
20260904173204 77 261 4.0 9.0 0.00 0.00 0.00 24 1014.9
20260904172704 76 283 3.0 9.0 0.00 0.00 0.00 24 1014.9
20260904172204 76 305 3.0 9.0 0.00 0.00 0.00 25 1014.9
20260904171704 76 286 4.0 10.0 0.00 0.00 0.00 25 1014.9
20260904170704 75 288 5.0 10.0 0.00 0.00 0.00 26 1014.9
20260904170204 75 348 5.0 9.0 0.00 0.00 0.00 26 1014.7
20260904165704 75 272 4.0 11.0 0.00 0.00 0.00 26 1014.7
20260904165204 74 266 5.0 11.0 0.00 0.00 0.00 26 1014.6
20260904164704 74 259 6.0 11.0 0.00 0.00 0.00 27 1014.6
20260904164206 74 319 5.0 11.0 0.00 0.00 0.00 28 1014.5
20260904163704 74 323 6.0 10.0 0.00 0.00 0.00 28 1014.5
20260904163204 73 288 6.0 11.0 0.00 0.00 0.00 29 1014.4
20260904162704 73 282 7.0 11.0 0.00 0.00 0.00 30 1014.4
20260904162206 73 321 7.0 11.0 0.00 0.00 0.00 30 1014.3
20260904161204 71 358 8.0 13.0 0.00 0.00 0.00 34 1014.4
20260904160704 71 306 9.0 13.0 0.00 0.00 0.00 36 1014.4
20260904160206 70 338 9.0 15.0 0.00 0.00 0.00 38 1014.3
20260904155204 69 358 11.0 17.0 0.00 0.00 0.00 39 1014.4
20260904154704 69 315 11.0 18.0 0.00 0.00 0.00 40 1014.4
20260904154205 68 320 11.0 18.0 0.00 0.00 0.00 42 1014.4
20260904153704 67 282 12.0 18.0 0.00 0.00 0.00 43 1014.3
20260904153204 67 318 12.0 17.0 0.00 0.00 0.00 44 1014.3
20260904152704 67 312 11.0 17.0 0.00 0.00 0.00 45 1014.3
20260904152206 67 322 11.0 19.0 0.00 0.00 0.00 46 1014.2
20260904151204 66 317 11.0 19.0 0.00 0.00 0.00 50 1014.2
20260904150704 65 325 12.0 17.0 0.00 0.00 0.00 51 1014.2
20260904150206 65 306 12.0 16.0 0.00 0.00 0.00 52 1014.2
20260904145704 65 311 10.0 15.0 0.00 0.00 0.00 53 1014.1
20260904145204 65 307 11.0 15.0 0.00 0.00 0.00 54 1014.1
20260904144704 64 321 11.0 14.0 0.00 0.00 0.00 55 1014.0
20260904144206 64 312 9.0 14.0 0.00 0.00 0.00 57 1014.0
20260904143705 63 319 8.0 14.0 0.00 0.00 0.00 58 1013.9
20260904143204 63 314 9.0 15.0 0.00 0.00 0.00 59 1013.9
20260904142705 62 318 10.0 15.0 0.00 0.00 0.00 60 1013.9
20260904142205 62 314 10.0 15.0 0.00 0.00 0.00 61 1013.8
20260904141704 61 309 9.0 13.0 0.00 0.00 0.00 62 1013.8
20260904141204 61 315 9.0 13.0 0.00 0.00 0.00 63 1013.8
20260904140704 60 323 9.0 15.0 0.00 0.00 0.00 65 1013.6
20260904140204 60 320 10.0 16.0 0.00 0.00 0.00 66 1013.6
20260904135704 60 317 11.0 16.0 0.00 0.00 0.00 67 1013.6
20260904135204 59 306 11.0 16.0 0.00 0.00 0.00 68 1013.5
20260904134703 59 315 11.0 16.0 0.00 0.00 0.00 68 1013.5
20260904134205 59 328 12.0 16.0 0.00 0.00 0.00 68 1013.4
20260904133704 59 313 12.0 16.0 0.00 0.00 0.00 68 1013.4
20260904133204 59 312 11.0 16.0 0.00 0.00 0.00 67 1013.4
20260904132704 60 325 12.0 16.0 0.00 0.00 0.00 67 1013.4
20260904132205 60 323 11.0 16.0 0.00 0.00 0.00 66 1013.5
20260904131705 60 332 9.0 12.0 0.00 0.00 0.00 66 1013.4
20260904130704 59 333 6.0 10.0 0.00 0.00 0.00 66 1013.4
20260904130204 59 334 5.0 9.0 0.00 0.00 0.00 66 1013.4
20260904125704 59 342 5.0 10.0 0.00 0.00 0.00 64 1013.3
20260904124704 59 338 6.0 11.0 0.00 0.00 0.00 64 1013.3
20260904124204 59 339 7.0 13.0 0.00 0.00 0.00 63 1013.2
20260904123204 59 329 9.0 14.0 0.00 0.00 0.00 63 1013.1
20260904122704 59 335 10.0 16.0 0.00 0.00 0.00 64 1013.0
20260904122204 59 329 10.0 16.0 0.00 0.00 0.00 64 1013.0
20260904121704 59 336 12.0 16.0 0.00 0.00 0.00 65 1012.9
20260904120204 59 321 11.0 15.0 0.00 0.00 0.00 65 1012.9
20260904115204 60 323 11.0 15.0 0.00 0.00 0.00 64 1013.0
20260904114704 60 317 11.0 15.0 0.00 0.00 0.00 64 1013.0
20260904114204 60 327 9.0 14.0 0.00 0.00 0.00 63 1013.0
20260904113705 60 324 9.0 14.0 0.00 0.00 0.00 63 1013.1
20260904113205 60 313 9.0 14.0 0.00 0.00 0.00 62 1013.1
20260904112704 60 318 10.0 14.0 0.00 0.00 0.00 63 1013.1
20260904111204 59 313 8.0 13.0 0.00 0.00 0.00 64 1013.1
20260904110704 59 323 8.0 12.0 0.00 0.00 0.00 64 1013.1
20260904110204 59 313 8.0 12.0 0.00 0.00 0.00 64 1013.1
20260904105704 59 323 7.0 12.0 0.00 0.00 0.00 63 1013.1
20260904104704 59 322 9.0 13.0 0.00 0.00 0.00 63 1013.0
20260904104204 59 327 9.0 13.0 0.00 0.00 0.00 63 1012.9
20260904103704 59 317 9.0 12.0 0.00 0.00 0.00 63 1012.8
20260904103205 59 327 9.0 12.0 0.00 0.00 0.00 63 1012.9
20260904102704 59 317 8.0 12.0 0.00 0.00 0.00 64 1012.9
20260904102204 58 320 6.0 10.0 0.00 0.00 0.00 65 1012.9
20260904101705 58 334 4.0 6.0 0.00 0.00 0.00 65 1012.8
20260904101204 58 338 3.0 6.0 0.00 0.00 0.00 65 1012.9
20260904100704 57 338 3.0 4.0 0.00 0.00 0.00 65 1012.9
20260904100204 57 338 3.0 4.0 0.00 0.00 0.00 65 1012.8
20260904095704 57 338 3.0 4.0 0.00 0.00 0.00 66 1012.9
20260904095204 57 338 3.0 4.0 0.00 0.00 0.00 67 1012.9
20260904094704 57 338 3.0 4.0 0.00 0.00 0.00 68 1012.9
20260904094204 57 338 2.0 4.0 0.00 0.00 0.00 67 1012.9
20260904093704 57 338 2.0 4.0 0.00 0.00 0.00 65 1013.0
20260904093204 57 338 2.0 4.0 0.00 0.00 0.00 65 1013.1
20260904092704 58 338 2.0 3.0 0.00 0.00 0.00 64 1013.0
20260904092204 58 338 1.0 3.0 0.00 0.00 0.00 64 1013.0
20260904091704 58 338 2.0 3.0 0.00 0.00 0.00 64 1013.0
20260904085704 60 338 2.0 5.0 0.00 0.00 0.00 60 1013.2
20260904085204 60 338 3.0 9.0 0.00 0.00 0.00 60 1013.1
20260904084704 60 338 4.0 10.0 0.00 0.00 0.00 60 1013.1
20260904083704 60 337 6.0 9.0 0.00 0.00 0.00 60 1013.2
20260904083204 60 336 5.0 9.0 0.00 0.00 0.00 60 1013.1
20260904082704 60 335 5.0 10.0 0.00 0.00 0.00 60 1013.1
20260904082204 60 331 6.0 10.0 0.00 0.00 0.00 61 1013.0
20260904081705 60 329 7.0 10.0 0.00 0.00 0.00 61 1013.0
20260904081204 60 331 7.0 10.0 0.00 0.00 0.00 62 1013.0
20260904080704 60 338 8.0 10.0 0.00 0.00 0.00 62 1013.1
20260904075704 60 326 7.0 11.0 0.00 0.00 0.00 61 1013.1
20260904074704 61 318 8.0 14.0 0.00 0.00 0.00 61 1013.2
20260904074205 61 329 9.0 15.0 0.00 0.00 0.00 61 1013.1
20260904073705 61 330 10.0 15.0 0.00 0.00 0.00 61 1013.1
20260904072204 61 325 11.0 16.0 0.00 0.00 0.00 62 1013.1
20260904071704 61 316 11.0 16.0 0.00 0.00 0.00 62 1013.1
20260904071204 61 317 11.0 16.0 0.00 0.00 0.00 61 1013.1
20260904070704 62 330 11.0 16.0 0.00 0.00 0.00 59 1013.0
20260904070204 62 309 11.0 16.0 0.00 0.00 0.00 58 1013.0
20260904065704 62 317 11.0 16.0 0.00 0.00 0.00 57 1013.0
20260904065206 62 328 11.0 15.0 0.00 0.00 0.00 56 1013.0
20260904064704 62 319 10.0 14.0 0.00 0.00 0.00 55 1013.0
20260904064204 62 321 9.0 15.0 0.00 0.00 0.00 56 1013.0
20260904063704 62 328 11.0 15.0 0.00 0.00 0.00 56 1013.0
20260904063205 62 315 10.0 14.0 0.00 0.00 0.00 57 1013.0
20260904062704 62 315 10.0 14.0 0.00 0.00 0.00 58 1013.0
20260904062204 62 312 9.0 13.0 0.00 0.00 0.00 59 1013.0
20260904061704 62 325 9.0 14.0 0.00 0.00 0.00 59 1013.0
20260904061205 62 318 9.0 14.0 0.00 0.00 0.00 60 1013.0
20260904060204 62 309 10.0 16.0 0.00 0.00 0.00 60 1013.0
20260904055704 63 325 9.0 16.0 0.00 0.00 0.00 59 1013.0
20260904055206 63 325 8.0 10.0 0.00 0.00 0.00 59 1013.0
20260904054704 64 313 6.0 10.0 0.00 0.00 0.00 58 1013.1
20260904054204 64 317 5.0 11.0 0.00 0.00 0.00 57 1013.1
20260904053704 64 315 6.0 11.0 0.00 0.00 0.00 56 1013.1
20260904053206 65 331 7.0 12.0 0.00 0.00 0.00 56 1013.1
20260904052704 65 334 8.0 12.0 0.00 0.00 0.00 57 1013.1
20260904052207 65 341 8.0 12.0 0.00 0.00 0.00 57 1013.1
20260904051704 65 343 6.0 9.0 0.00 0.00 0.00 56 1013.3
20260904050204 66 7 4.0 10.0 0.00 0.00 0.00 54 1013.4
20260904045704 66 9 4.0 10.0 0.00 0.00 0.00 55 1013.4
20260904045205 66 3 4.0 5.0 0.00 0.00 0.00 55 1013.5
20260904044704 66 17 3.0 5.0 0.00 0.00 0.00 54 1013.5
20260904044204 66 17 2.0 7.0 0.00 0.00 0.00 53 1013.5
20260904043704 67 17 2.0 7.0 0.00 0.00 0.00 53 1013.4
20260904043205 67 17 4.0 7.0 0.00 0.00 0.00 52 1013.5
20260904042704 67 17 4.0 7.0 0.00 0.00 0.00 51 1013.4
20260904042204 67 19 3.0 5.0 0.00 0.00 0.00 49 1013.5
20260904041704 67 22 3.0 5.0 0.00 0.00 0.00 49 1013.4
20260904041205 67 22 3.0 4.0 0.00 0.00 0.00 49 1013.4
20260904040704 68 22 2.0 4.0 0.00 0.00 0.00 52 1013.4
20260904040204 68 22 2.0 5.0 0.00 0.00 0.00 50 1013.3
20260904035704 69 22 2.0 5.0 0.00 0.00 0.00 48 1013.3
20260904034704 69 22 2.0 6.0 0.00 0.00 0.00 44 1013.1
20260904034204 69 20 4.0 9.0 0.00 0.00 0.00 42 1013.0
20260904033704 69 20 4.0 15.0 0.00 0.00 0.00 42 1013.0
20260904033208 69 23 5.0 16.0 0.00 0.00 0.00 43 1013.0
20260904032704 70 28 9.0 17.0 0.00 0.00 0.00 44 1013.0
20260904032204 70 325 12.0 19.0 0.00 0.00 0.00 43 1012.8
20260904031705 70 320 12.0 20.0 0.00 0.00 0.00 43 1012.8
20260904030704 70 322 11.0 19.0 0.00 0.00 0.00 42 1012.6
20260904030204 71 299 12.0 19.0 0.00 0.00 0.00 42 1012.6
20260904025704 71 311 12.0 20.0 0.00 0.00 0.00 40 1012.6
20260904025206 71 315 12.0 20.0 0.00 0.00 0.00 39 1012.6
20260904024704 71 307 12.0 18.0 0.00 0.00 0.00 37 1012.5
20260904024204 71 312 11.0 17.0 0.00 0.00 0.00 36 1012.5
20260904023205 72 297 11.0 17.0 0.00 0.00 0.00 35 1012.5
20260904022704 72 336 11.0 16.0 0.00 0.00 0.00 34 1012.5
20260904021704 73 358 11.0 20.0 0.00 0.00 0.00 36 1012.5
20260904021206 73 358 11.0 19.0 0.00 0.00 0.00 36 1012.5
20260904020704 73 358 11.0 19.0 0.00 0.00 0.00 33 1012.5
20260904020204 74 358 10.0 20.0 0.00 0.00 0.00 31 1012.6
20260904015704 74 358 10.0 20.0 0.00 0.00 0.00 34 1012.5
20260904015206 74 358 11.0 20.0 0.00 0.00 0.00 37 1012.6
20260904014206 74 358 12.0 20.0 0.00 0.00 0.00 40 1012.5
20260904013704 74 358 12.0 19.0 0.00 0.00 0.00 40 1012.4
20260904013206 75 358 10.0 19.0 0.00 0.00 0.00 40 1012.4
20260904012705 75 358 10.0 19.0 0.00 0.00 0.00 38 1012.4
20260904012205 76 286 11.0 19.0 0.00 0.00 0.00 35 1012.4
20260904011704 76 290 12.0 19.0 0.00 0.00 0.00 33 1012.4
20260904011205 76 303 12.0 19.0 0.00 0.00 0.00 33 1012.4
20260904010704 76 295 12.0 23.0 0.00 0.00 0.00 33 1012.3
20260904010204 76 329 13.0 23.0 0.00 0.00 0.00 33 1012.3
20260904005704 76 290 15.0 23.0 0.00 0.00 0.00 34 1012.3
20260904005206 76 358 16.0 23.0 0.00 0.00 0.00 36 1012.3
20260904004704 76 358 15.0 21.0 0.00 0.00 0.00 36 1012.3
20260904004204 77 298 14.0 21.0 0.00 0.00 0.00 38 1012.3
20260904003205 77 302 14.0 22.0 0.00 0.00 0.00 40 1012.4
20260904002704 77 307 15.0 22.0 0.00 0.00 0.00 40 1012.3
20260904002204 77 287 15.0 23.0 0.00 0.00 0.00 39 1012.3
20260904001704 77 288 16.0 23.0 0.00 0.00 0.00 39 1012.3
20260904000705 78 300 16.0 23.0 0.00 0.00 0.00 37 1012.4
20260904000204 78 304 16.0 22.0 0.00 0.00 0.00 37 1012.3
20260903235704 79 300 14.0 22.0 0.00 0.00 0.00 36 1012.4
20260903234706 79 302 14.0 22.0 0.00 0.00 0.00 36 1012.3
20260903234204 80 303 14.0 21.0 0.00 0.00 0.00 35 1012.4
20260903233704 79 290 15.0 21.0 0.00 0.00 0.00 35 1012.4
20260903233204 80 304 14.0 21.0 0.00 0.00 0.00 35 1012.4
20260903232705 80 320 14.0 21.0 0.00 0.00 0.00 34 1012.3
20260903232204 80 309 16.0 20.0 0.00 0.00 0.00 35 1012.4
20260903231204 80 304 15.0 21.0 0.00 0.00 0.00 32 1012.4
20260903230204 81 326 13.0 20.0 0.00 0.00 0.00 31 1012.5
20260903225704 81 325 14.0 21.0 0.00 0.00 0.00 30 1012.5
20260903225204 80 311 15.0 21.0 0.00 0.00 0.00 30 1012.6
20260903224706 81 273 14.0 21.0 0.00 0.00 0.00 28 1012.6
20260903224204 81 297 14.0 22.0 0.00 0.00 0.00 28 1012.6
20260903223704 81 311 15.0 22.0 0.00 0.00 0.00 28 1012.9
20260903223205 81 300 15.0 24.0 0.00 0.00 0.00 27 1012.8
20260903222205 81 277 16.0 24.0 0.00 0.00 0.00 28 1012.9
20260903221704 81 299 15.0 23.0 0.00 0.00 0.00 27 1012.9
20260903221205 81 311 14.0 23.0 0.00 0.00 0.00 27 1012.9
20260903220708 81 309 15.0 23.0 0.00 0.00 0.00 27 1013.0
20260903220204 82 312 15.0 21.0 0.00 0.00 0.00 27 1013.0
20260903215704 82 308 14.0 25.0 0.00 0.00 0.00 26 1013.0
20260903215204 82 292 14.0 25.0 0.00 0.00 0.00 26 1013.0
20260903214705 82 288 14.0 25.0 0.00 0.00 0.00 26 1013.1
20260903213704 82 320 13.0 19.0 0.00 0.00 0.00 26 1013.1
20260903213205 82 317 13.0 19.0 0.00 0.00 0.00 26 1013.2
20260903212705 82 284 13.0 19.0 0.00 0.00 0.00 26 1013.1
20260903212204 82 321 13.0 19.0 0.00 0.00 0.00 26 1013.2
20260903211704 81 298 13.0 18.0 0.00 0.00 0.00 26 1013.3
20260903211204 82 281 13.0 18.0 0.00 0.00 0.00 26 1013.3
20260903210704 81 321 13.0 19.0 0.00 0.00 0.00 26 1013.3
20260903205704 81 305 13.0 19.0 0.00 0.00 0.00 26 1013.3
20260903205204 81 302 12.0 18.0 0.00 0.00 0.00 26 1013.3
20260903204704 81 287 12.0 18.0 0.00 0.00 0.00 27 1013.3
20260903204204 81 291 12.0 18.0 0.00 0.00 0.00 26 1013.4
20260903203205 81 327 10.0 16.0 0.00 0.00 0.00 26 1013.4
20260903202704 81 286 10.0 15.0 0.00 0.00 0.00 27 1013.5
20260903201706 81 313 8.0 16.0 0.00 0.00 0.00 26 1013.5
20260903201205 80 299 10.0 16.0 0.00 0.00 0.00 25 1013.8